Location: Unnamed
(48.8836°N, 1.0859°W)
Time: 13:37:22
(UTC+02:00)

ISS - Pass Details

Date: 07 October 2021
Orbit: 417 x 423 km, 51.6° (Epoch: 16 October)

Event Time Altitude Azimuth Distance (km) Brightness Sun altitude
Rises 20:21:27 0° 283° (WNW) 2,364 2.0 -9.2°
Reaches altitude 10° 20:24:14 10° 259° (WSW) 1,497 0.5 -9.7°
Maximum altitude 20:26:10 15° 223° (SW) 1,244 -0.8 -10.0°
Drops below altitude 10° 20:28:06 10° 188° (S) 1,492 -0.9 -10.3°
Sets 20:30:52 0° 163° (SSE) 2,352 -0.2 -10.7°
